GW2100 Weather Reports


Display with metric or nautical units.
time (UTC)temp
F
wind
direction
speed
MPH
gust
MPH
rain 1hr
in
rain 24hr
in
rain mn
in
humidity
%
barometer
mb
20260504151003 51 330 19.0 30.0 0.00 0.00 0.00 48 1010.2
20260504150503 51 349 17.0 28.0 0.00 0.00 0.00 48 1010.5
20260504141004 51 352 18.0 31.0 0.00 0.00 0.00 54 1010.0
20260504140503 51 349 14.0 22.0 0.00 0.00 0.00 54 1010.1
20260504130503 49 332 9.0 18.0 0.00 0.00 0.00 54 1009.9
20260504110503 55 357 20.0 29.0 0.00 0.00 0.00 43 1006.5
20260504100502 55 279 7.0 12.0 0.00 0.00 0.00 41 1005.5
20260504082004 56 281 8.0 17.0 0.00 0.00 0.00 44 1005.3
20260504081503 56 282 8.0 14.0 0.00 0.00 0.00 44 1005.4
20260504081004 56 275 7.0 14.0 0.00 0.00 0.00 45 1005.4
20260504080503 56 266 7.0 14.0 0.00 0.00 0.00 45 1005.4
20260504050503 57 284 7.0 12.0 0.00 0.00 0.00 48 1007.0
20260504050004 57 267 6.0 12.0 0.00 0.00 0.00 49 1007.0
20260504045503 57 271 6.0 12.0 0.00 0.00 0.00 48 1007.0
20260504045003 57 273 7.0 12.0 0.00 0.00 0.00 49 1007.0
20260504044503 57 275 7.0 12.0 0.00 0.00 0.00 49 1006.8
20260504044003 57 262 6.0 12.0 0.00 0.00 0.00 49 1006.8
20260504043504 57 260 7.0 13.0 0.00 0.00 0.00 50 1006.8
20260504043003 57 261 7.0 14.0 0.00 0.00 0.00 50 1006.8
20260504042503 57 256 7.0 14.0 0.00 0.00 0.00 51 1006.8
20260504042003 57 253 7.0 14.0 0.00 0.00 0.00 52 1006.8
20260504041503 57 249 6.0 14.0 0.00 0.00 0.00 53 1006.7
20260504041003 57 257 6.0 12.0 0.00 0.00 0.00 55 1006.8
20260504040503 57 267 5.0 10.0 0.00 0.00 0.00 57 1006.9
20260504040004 57 265 5.0 8.0 0.00 0.00 0.00 57 1007.0
20260504035503 57 265 4.0 8.0 0.00 0.00 0.00 57 1007.0
20260504035003 58 261 5.0 9.0 0.00 0.00 0.00 57 1007.1
20260504034503 58 253 3.0 9.0 0.00 0.00 0.00 56 1007.1
20260504034003 58 236 5.0 9.0 0.00 0.00 0.00 56 1007.1
20260504033503 58 254 5.0 9.0 0.00 0.00 0.00 57 1007.1
20260504033003 58 252 3.0 7.0 0.00 0.00 0.00 58 1007.2
20260504032503 58 252 3.0 7.0 0.00 0.00 0.00 58 1007.2
20260504032003 58 248 3.0 7.0 0.00 0.00 0.00 57 1007.2
20260504031503 58 233 4.0 7.0 0.00 0.00 0.00 57 1007.1
20260504031003 58 220 4.0 8.0 0.00 0.00 0.00 58 1007.1
20260504030503 57 268 2.0 8.0 0.00 0.00 0.00 59 1007.2
20260504030003 56 216 2.0 8.0 0.00 0.00 0.00 62 1007.1
20260504025503 56 147 2.0 3.0 0.00 0.00 0.00 62 1007.1
20260504025005 57 114 3.0 3.0 0.00 0.00 0.00 61 1007.1
20260504024503 57 85 2.0 3.0 0.00 0.00 0.00 61 1007.1
20260504024003 56 90 2.0 6.0 0.00 0.00 0.00 61 1007.2
20260504023503 56 109 3.0 6.0 0.00 0.00 0.00 61 1007.2
20260504023003 56 147 3.0 6.0 0.00 0.00 0.00 61 1007.1
20260504022503 56 163 2.0 6.0 0.00 0.00 0.00 61 1007.1
20260504022003 57 164 5.0 6.0 0.00 0.00 0.00 60 1007.1
20260504021503 57 163 4.0 7.0 0.00 0.00 0.00 59 1007.2
20260504021003 57 156 4.0 7.0 0.00 0.00 0.00 59 1007.3
20260504020503 57 150 5.0 7.0 0.00 0.00 0.00 59 1007.4
20260504020004 58 144 6.0 7.0 0.00 0.00 0.00 58 1007.4
20260504015503 58 160 4.0 8.0 0.00 0.00 0.00 57 1007.4
20260504015004 59 167 5.0 10.0 0.00 0.00 0.00 56 1007.5
20260504014504 59 173 5.0 14.0 0.00 0.00 0.00 55 1007.5
20260504014003 59 179 8.0 14.0 0.00 0.00 0.00 55 1007.5
20260504013503 60 183 9.0 14.0 0.00 0.00 0.00 53 1007.6
20260504013003 60 185 9.0 14.0 0.00 0.00 0.00 53 1007.6
20260504012503 60 184 9.0 16.0 0.00 0.00 0.00 52 1007.7
20260504012003 60 181 9.0 18.0 0.00 0.00 0.00 51 1007.8
20260504011504 60 187 13.0 18.0 0.00 0.00 0.00 51 1007.9
20260504011003 61 182 11.0 18.0 0.00 0.00 0.00 50 1007.9
20260504010503 61 183 9.0 18.0 0.00 0.00 0.00 51 1008.1
20260504010003 61 180 9.0 14.0 0.00 0.00 0.00 50 1008.2
20260504005503 62 179 8.0 14.0 0.00 0.00 0.00 49 1008.3
20260504005003 62 176 9.0 14.0 0.00 0.00 0.00 48 1008.4
20260504004503 62 173 9.0 14.0 0.00 0.00 0.00 47 1008.5
20260504004003 62 169 9.0 16.0 0.00 0.00 0.00 47 1008.6
20260504003503 62 173 8.0 16.0 0.00 0.00 0.00 46 1008.6
20260504003003 62 178 10.0 16.0 0.00 0.00 0.00 45 1008.6
20260504002503 63 185 11.0 17.0 0.00 0.00 0.00 44 1008.8
20260504002002 63 183 11.0 17.0 0.00 0.00 0.00 45 1008.8
20260504001503 64 183 11.0 17.0 0.00 0.00 0.00 44 1008.9
20260504001002 64 190 12.0 17.0 0.00 0.00 0.00 41 1008.9
20260504000503 64 192 11.0 15.0 0.00 0.00 0.00 39 1009.0
20260504000002 65 191 9.0 14.0 0.00 0.00 0.00 38 1009.1
20260503235503 65 181 6.0 13.0 0.00 0.00 0.00 40 1009.2
20260503235003 65 196 7.0 13.0 0.00 0.00 0.00 40 1009.3
20260503234503 65 193 8.0 12.0 0.00 0.00 0.00 40 1009.4
20260503234003 64 212 6.0 12.0 0.00 0.00 0.00 40 1009.4
20260503233502 64 214 6.0 14.0 0.00 0.00 0.00 40 1009.4
20260503233002 64 213 6.0 16.0 0.00 0.00 0.00 40 1009.6
20260503232502 65 203 10.0 16.0 0.00 0.00 0.00 39 1009.6
20260503232003 64 217 6.0 15.0 0.00 0.00 0.00 42 1009.6
20260503231503 63 211 9.0 15.0 0.00 0.00 0.00 43 1009.7
20260503231003 63 215 8.0 14.0 0.00 0.00 0.00 46 1009.7
20260503230504 64 204 8.0 14.0 0.00 0.00 0.00 50 1009.8
20260503230004 63 198 8.0 13.0 0.00 0.00 0.00 52 1009.9
20260503225504 62 248 3.0 7.0 0.00 0.00 0.00 53 1009.9
20260503225004 62 177 1.0 7.0 0.00 0.00 0.00 53 1010.2
20260503224503 61 255 1.0 9.0 0.00 0.00 0.00 52 1010.6
20260503224004 61 232 4.0 10.0 0.00 0.00 0.00 52 1010.8
20260503223504 62 217 4.0 10.0 0.00 0.00 0.00 53 1010.9
20260503223004 62 208 6.0 10.0 0.00 0.00 0.00 53 1011.0
20260503222504 62 238 3.0 7.0 0.00 0.00 0.00 53 1011.0
20260503222004 62 230 3.0 8.0 0.00 0.00 0.00 53 1011.2
20260503221504 61 248 4.0 8.0 0.00 0.00 0.00 56 1011.3
20260503221004 61 250 3.0 7.0 0.00 0.00 0.00 59 1011.3
20260503220504 61 227 3.0 6.0 0.00 0.00 0.00 62 1011.4
20260503220004 59 270 3.0 6.0 0.00 0.00 0.00 62 1011.5
20260503215504 58 288 2.0 5.0 0.00 0.00 0.00 64 1011.5
20260503215003 58 328 3.0 6.0 0.00 0.00 0.00 69 1011.6
20260503214504 57 328 4.0 8.0 0.00 0.00 0.00 70 1011.6
20260503214004 56 336 5.0 9.0 0.00 0.00 0.00 71 1011.8
20260503213504 56 339 6.0 14.0 0.00 0.00 0.00 71 1012.0
20260503213003 57 349 7.0 15.0 0.00 0.00 0.00 69 1012.0
20260503212503 58 9 10.0 15.0 0.00 0.00 0.00 64 1012.0
20260503212003 58 335 4.0 6.0 0.00 0.00 0.00 63 1012.1
20260503211504 59 321 3.0 10.0 0.00 0.00 0.00 56 1012.2
20260503211004 59 281 4.0 10.0 0.00 0.00 0.00 59 1012.3
20260503210504 60 313 5.0 8.0 0.00 0.00 0.00 56 1012.3
20260503210004 61 301 6.0 7.0 0.00 0.00 0.00 49 1012.6
20260503205504 61 296 5.0 7.0 0.00 0.00 0.00 47 1012.5
20260503205004 62 310 1.0 5.0 0.00 0.00 0.00 46 1012.3
20260503204503 62 167 1.0 8.0 0.00 0.00 0.00 45 1012.1
20260503204004 62 206 4.0 8.0 0.00 0.00 0.00 45 1012.0
20260503203503 62 183 4.0 8.0 0.00 0.00 0.00 45 1011.8
20260503203003 63 133 3.0 8.0 0.00 0.00 0.00 45 1011.9
20260503202503 63 105 5.0 8.0 0.00 0.00 0.00 45 1011.9
20260503202003 62 121 4.0 6.0 0.00 0.00 0.00 47 1011.9
20260503201504 61 121 3.0 5.0 0.00 0.00 0.00 47 1012.1
20260503201004 61 68 2.0 7.0 0.00 0.00 0.00 50 1012.2
20260503200504 61 10 3.0 10.0 0.00 0.00 0.00 50 1012.4
20260503200004 61 20 6.0 10.0 0.00 0.00 0.00 50 1012.6
20260503195504 62 19 8.0 10.0 0.00 0.00 0.00 48 1012.7
20260503195004 62 2 5.0 9.0 0.00 0.00 0.00 48 1012.8
20260503194504 62 356 4.0 10.0 0.00 0.00 0.00 47 1012.8
20260503194003 63 7 7.0 10.0 0.00 0.00 0.00 44 1012.9
20260503193504 64 37 5.0 7.0 0.00 0.00 0.00 40 1012.8
20260503193004 64 9 4.0 7.0 0.00 0.00 0.00 38 1012.8
20260503192504 64 26 4.0 9.0 0.00 0.00 0.00 39 1012.8
20260503192003 64 37 6.0 9.0 0.00 0.00 0.00 36 1012.8
20260503191504 65 53 3.0 8.0 0.00 0.00 0.00 36 1012.9
20260503191003 64 173 2.0 7.0 0.00 0.00 0.00 36 1012.9
20260503190504 65 174 3.0 7.0 0.00 0.00 0.00 35 1012.9
20260503190003 66 118 3.0 14.0 0.00 0.00 0.00 35 1013.0
20260503185503 67 2 5.0 14.0 0.00 0.00 0.00 34 1013.1
20260503185003 67 13 9.0 14.0 0.00 0.00 0.00 34 1013.1
20260503184503 67 339 8.0 13.0 0.00 0.00 0.00 36 1013.2
20260503184003 65 326 7.0 14.0 0.00 0.00 0.00 38 1013.2
20260503183503 65 330 8.0 14.0 0.00 0.00 0.00 42 1013.3
20260503183003 64 10 7.0 14.0 0.00 0.00 0.00 38 1013.5
20260503182504 64 354 5.0 12.0 0.00 0.00 0.00 36 1013.5
20260503182004 64 39 5.0 17.0 0.00 0.00 0.00 35 1013.6
20260503181505 65 22 10.0 17.0 0.00 0.00 0.00 35 1013.6
20260503181003 65 334 11.0 17.0 0.00 0.00 0.00 33 1013.5
20260503180503 65 36 2.0 15.0 0.00 0.00 0.00 34 1013.7
20260503180004 67 29 8.0 16.0 0.00 0.00 0.00 33 1013.7
20260503175503 67 25 9.0 16.0 0.00 0.00 0.00 33 1013.7
20260503175004 67 22 6.0 16.0 0.00 0.00 0.00 33 1013.8
20260503174503 66 37 5.0 12.0 0.00 0.00 0.00 34 1014.0
20260503174003 65 18 8.0 14.0 0.00 0.00 0.00 35 1014.0
20260503173503 65 11 6.0 15.0 0.00 0.00 0.00 35 1014.1
20260503173003 64 7 10.0 15.0 0.00 0.00 0.00 36 1014.2
20260503172504 65 20 9.0 15.0 0.00 0.00 0.00 35 1014.3
20260503172003 65 11 11.0 15.0 0.00 0.00 0.00 35 1014.4
20260503171503 64 40 4.0 13.0 0.00 0.00 0.00 35 1014.5
20260503171003 64 353 5.0 15.0 0.00 0.00 0.00 37 1014.4
20260503170503 64 3 7.0 15.0 0.00 0.00 0.00 36 1014.5